Reidsville, NC

9:24 PM EDT on June 24, 2017 (GMT -0400)
Reidsville

Weather History for KSIF - April, 2013

Change the Weather History Date:

Tuesday, April 2, 2013

  Actual Average (KGSO) Record (KGSO)
Temperature  
Mean Temperature 44 °F -  
Max Temperature 59 °F 68 °F 87 °F (1967)
Min Temperature 30 °F 43 °F 24 °F (1923)
Degree Days  
Heating Degree Days 20    
Moisture  
Dew Point 22 °F    
Average Humidity 43    
Maximum Humidity 90    
Minimum Humidity 17    
Precipitation  
Precipitation 0.00 in - - ()
Sea Level Pressure  
Sea Level Pressure 30.10 in    
Wind  
Wind Speed 4 mph (NW)    
Max Wind Speed 13 mph    
Max Gust Speed 22 mph    
Visibility 10 miles    
Events      
Averages and records for this station are not official NWS values.
T = Trace of Precipitation, MM = Missing Value Source: NWS Daily Summary

Daily Weather History Graph

Daily Weather History Graph

Search for Another Location

Airport or City:

Trip Planner

Search our weather history database for the weather conditions in past years. The results will help you decide how hot, cold, wet, or windy it might be!

Date:

Astronomy

Apr. 02, 2013 Rise Set
Actual Time 7:03 AM EDT 7:42 PM EDT
Civil Twilight 6:37 AM EDT 8:08 PM EDT
Nautical Twilight 6:07 AM EDT 8:39 PM EDT
Astronomical Twilight 5:35 AM EDT 9:10 PM EDT
Moon 1:39 AM EDT (4/2) 11:59 AM EDT (4/2)
Length of Visible Light 13h 30m
Length of Day
12h 38m
Waning Gibbous, 56% of the Moon is Illuminated
Apr 2
Waning Gibbous
Apr 3
Last Quarter
Apr 10
New
Apr 18
First Quarter
Apr 25
Full

Hourly Weather History & Observations

Time (EDT) Temp. Windchill Dew Point Humidity Pressure Visibility Wind Dir Wind Speed Gust Speed Precip Events Conditions
12:15 AM 46.6 °F - 32.0 °F 57% 30.01 in 10.0 mi North 3.5 mph - N/A   Scattered Clouds
12:35 AM 46.2 °F 43.3 °F 31.5 °F 56% 30.02 in 10.0 mi North 5.8 mph - N/A   Scattered Clouds
12:55 AM 45.9 °F 42.9 °F 30.9 °F 56% 30.03 in 10.0 mi North 5.8 mph - N/A   Scattered Clouds
1:15 AM 45.0 °F - 30.2 °F 56% 30.03 in 10.0 mi Calm Calm - N/A   Clear
1:35 AM 44.2 °F 42.7 °F 29.5 °F 56% 30.04 in 10.0 mi North 3.5 mph - N/A   Clear
1:55 AM 43.7 °F - 29.1 °F 57% 30.04 in 10.0 mi Calm Calm - N/A   Clear
2:15 AM 41.2 °F - 29.3 °F 63% 30.05 in 10.0 mi Calm Calm - N/A   Clear
2:35 AM 39.7 °F - 29.1 °F 66% 30.05 in 10.0 mi Calm Calm - N/A   Clear
2:55 AM 37.4 °F - 29.3 °F 73% 30.05 in 10.0 mi Calm Calm - N/A   Clear
3:15 AM 38.8 °F - 29.1 °F 68% 30.05 in 10.0 mi Calm Calm - N/A   Clear
3:35 AM 36.0 °F - 29.1 °F 76% 30.05 in 10.0 mi Calm Calm - N/A   Clear
3:55 AM 33.3 °F - 29.3 °F 85% 30.05 in 10.0 mi Calm Calm - N/A   Clear
4:15 AM 31.8 °F - 28.4 °F 87% 30.05 in 10.0 mi Calm Calm - N/A   Clear
4:35 AM 30.7 °F - 28.0 °F 90% 30.06 in 10.0 mi Calm Calm - N/A   Clear
4:55 AM 32.0 °F - 28.6 °F 87% 30.07 in 10.0 mi Calm Calm - N/A   Clear
5:15 AM 32.5 °F - 29.1 °F 87% 30.07 in 10.0 mi Calm Calm - N/A   Clear
5:35 AM 33.6 °F - 28.8 °F 82% 30.08 in 10.0 mi Calm Calm - N/A   Clear
5:55 AM 32.9 °F - 28.0 °F 82% 30.08 in 10.0 mi Calm Calm - N/A   Clear
6:15 AM 32.9 °F 28.5 °F 27.9 °F 82% 30.09 in 10.0 mi North 4.6 mph - N/A   Clear
6:35 AM 35.4 °F 32.6 °F 27.5 °F 73% 30.10 in 10.0 mi North 3.5 mph - N/A   Clear
6:55 AM 35.6 °F - 27.3 °F 72% 30.11 in 10.0 mi Calm Calm - N/A   Clear
7:15 AM 36.5 °F 33.9 °F 26.6 °F 67% 30.13 in 10.0 mi North 3.5 mph - N/A   Clear
7:35 AM 36.5 °F 32.7 °F 26.1 °F 66% 30.14 in 10.0 mi North 4.6 mph - N/A   Clear
7:55 AM 38.7 °F 33.6 °F 25.0 °F 58% 30.14 in 10.0 mi North 6.9 mph - N/A   Clear
8:15 AM 40.5 °F 35.1 °F 25.0 °F 54% 30.15 in 10.0 mi North 8.1 mph - N/A   Clear
8:35 AM 42.1 °F 38.4 °F 24.4 °F 50% 30.16 in 10.0 mi North 5.8 mph - N/A   Clear
8:55 AM 43.5 °F 40.9 °F 23.7 °F 46% 30.16 in 10.0 mi North 4.6 mph - N/A   Clear
9:15 AM 44.6 °F 42.2 °F 23.5 °F 44% 30.16 in 10.0 mi NE 4.6 mph - N/A   Clear
9:35 AM 45.9 °F 42.3 °F 23.2 °F 41% 30.16 in 10.0 mi North 6.9 mph - N/A   Clear
9:55 AM 47.3 °F - 23.4 °F 39% 30.16 in 10.0 mi NW 6.9 mph - N/A   Clear
10:35 AM 48.9 °F - 22.6 °F 36% 30.16 in 10.0 mi NW 9.2 mph - N/A   Clear
10:55 AM 49.3 °F - 22.3 °F 35% 30.16 in 10.0 mi NW 6.9 mph 20.7 mph N/A   Clear
11:15 AM 50.0 °F - 20.3 °F 31% 30.16 in 10.0 mi WNW 8.1 mph 16.1 mph N/A   Clear
11:35 AM 50.4 °F - 20.1 °F 30% 30.17 in 10.0 mi NW 8.1 mph 16.1 mph N/A   Clear
11:55 AM 50.9 °F - 20.3 °F 30% 30.16 in 10.0 mi WNW 6.9 mph - N/A   Clear
12:15 PM 50.9 °F - 18.7 °F 28% 30.16 in 10.0 mi NW 5.8 mph - N/A   Clear
12:35 PM 52.2 °F - 21.0 °F 30% 30.16 in 10.0 mi NW 5.8 mph - N/A   Clear
12:55 PM 53.2 °F - 21.0 °F 28% 30.15 in 10.0 mi WNW 5.8 mph - N/A   Clear
1:15 PM 53.8 °F - 21.4 °F 28% 30.14 in 10.0 mi North 6.9 mph - N/A   Clear
1:35 PM 53.4 °F - 20.1 °F 27% 30.13 in 10.0 mi SW 4.6 mph 17.3 mph N/A   Clear
1:55 PM 55.4 °F - 19.6 °F 25% 30.12 in 10.0 mi WNW 8.1 mph 17.3 mph N/A   Clear
2:15 PM 54.9 °F - 18.9 °F 24% 30.11 in 10.0 mi West 9.2 mph 17.3 mph N/A   Clear
2:35 PM 56.3 °F - 16.5 °F 21% 30.10 in 10.0 mi NW 8.1 mph - N/A   Clear
2:55 PM 56.5 °F - 17.1 °F 21% 30.09 in 10.0 mi WSW 9.2 mph - N/A   Clear
3:15 PM 57.4 °F - 18.5 °F 22% 30.08 in 10.0 mi WSW 10.4 mph 16.1 mph N/A   Clear
3:35 PM 58.8 °F - 16.3 °F 19% 30.06 in 10.0 mi WNW 5.8 mph - N/A   Clear
3:55 PM 58.5 °F - 14.0 °F 17% 30.06 in 10.0 mi WNW 12.7 mph 21.9 mph N/A   Clear
4:15 PM 58.3 °F - 14.9 °F 18% 30.06 in 10.0 mi NW 3.5 mph - N/A   Clear
4:35 PM 59.0 °F - 15.6 °F 18% 30.06 in 10.0 mi WNW 9.2 mph - N/A   Clear
4:55 PM 58.6 °F - 16.2 °F 19% 30.06 in 10.0 mi West 6.9 mph 16.1 mph N/A   Clear
5:15 PM 58.8 °F - 15.8 °F 19% 30.06 in 10.0 mi NW 10.4 mph - N/A   Clear
5:35 PM 58.6 °F - 16.3 °F 19% 30.06 in 10.0 mi NW 5.8 mph - N/A   Clear
5:55 PM 58.3 °F - 14.4 °F 18% 30.06 in 10.0 mi West 8.1 mph 16.1 mph N/A   Clear
6:15 PM 56.8 °F - 14.9 °F 19% 30.06 in 10.0 mi West 8.1 mph - N/A   Clear
6:35 PM 55.9 °F - 16.3 °F 21% 30.07 in 10.0 mi WNW 5.8 mph - N/A   Clear
6:55 PM 55.6 °F - 16.7 °F 22% 30.07 in 10.0 mi WNW 5.8 mph - N/A   Clear
7:15 PM 54.0 °F - 18.7 °F 25% 30.08 in 10.0 mi WNW 3.5 mph - N/A   Clear
7:35 PM 53.6 °F - 18.7 °F 25% 30.08 in 10.0 mi Calm Calm - N/A   Clear
7:55 PM 51.1 °F - 20.7 °F 30% 30.08 in 10.0 mi Calm Calm - N/A   Clear
8:15 PM 52.7 °F - 16.7 °F 24% 30.09 in 10.0 mi Calm Calm - N/A   Clear
8:35 PM 52.2 °F - 16.7 °F 25% 30.09 in 10.0 mi Calm Calm - N/A   Clear
8:55 PM 52.3 °F - 16.3 °F 24% 30.10 in 10.0 mi Calm Calm - N/A   Clear
9:15 PM 48.9 °F - 22.1 °F 35% 30.11 in 10.0 mi Calm Calm - N/A   Clear
9:35 PM 49.3 °F - 20.7 °F 32% 30.11 in 10.0 mi Calm Calm - N/A   Clear
9:55 PM 46.0 °F - 23.9 °F 42% 30.12 in 10.0 mi Calm Calm - N/A   Clear
10:15 PM 44.4 °F - 27.0 °F 50% 30.13 in 10.0 mi Calm Calm - N/A   Clear
10:35 PM 47.8 °F - 18.7 °F 31% 30.14 in 10.0 mi Calm Calm - N/A   Clear
10:55 PM 48.4 °F - 15.6 °F 27% 30.14 in 10.0 mi NNE 3.5 mph - N/A   Clear
11:15 PM 48.2 °F - 15.1 °F 27% 30.14 in 10.0 mi Calm Calm - N/A   Clear
11:35 PM 48.2 °F - 13.8 °F 25% 30.15 in 10.0 mi North 3.5 mph - N/A   Clear
11:55 PM 47.8 °F - 13.3 °F 25% 30.15 in 10.0 mi NNE 4.6 mph - N/A   Clear